TimeAKST,TemperatureF,Dew PointF,Humidity,Sea Level PressureIn,VisibilityMPH,Wind Direction,Wind SpeedMPH,Gust SpeedMPH,PrecipitationIn,Events,Conditions,WindDirDegrees,DateUTC
12:53 AM,-32.1,-9999,N/A,30.09,10.0,ESE,3.5,-,N/A,,Clear,120,2013-02-09 09:53:00
1:53 AM,-31.0,-9999,N/A,30.09,10.0,ESE,3.5,-,N/A,,Clear,110,2013-02-09 10:53:00
2:53 AM,-33.0,-9999,N/A,30.09,10.0,East,4.6,-,N/A,,Clear,100,2013-02-09 11:53:00
3:53 AM,-32.1,-9999,N/A,30.09,10.0,East,6.9,-,N/A,,Clear,100,2013-02-09 12:53:00
4:53 AM,-33.0,-9999,N/A,30.08,10.0,ESE,6.9,-,N/A,,Clear,110,2013-02-09 13:53:00
5:53 AM,-31.0,-9999,N/A,30.07,10.0,East,5.8,-,N/A,,Clear,90,2013-02-09 14:53:00
6:53 AM,-29.9,-9999,N/A,30.06,10.0,East,5.8,-,N/A,,Clear,80,2013-02-09 15:53:00
7:53 AM,-29.0,-35.0,73,30.06,10.0,ENE,6.9,-,N/A,,Scattered Clouds,60,2013-02-09 16:53:00
8:53 AM,-29.0,-35.0,73,30.05,10.0,ENE,8.1,-,N/A,,Scattered Clouds,70,2013-02-09 17:53:00
9:53 AM,-27.9,-34.1,73,30.02,10.0,ENE,9.2,-,N/A,,Scattered Clouds,70,2013-02-09 18:53:00
10:53 AM,-26.0,-32.1,73,30.01,10.0,ENE,9.2,-,N/A,,Mostly Cloudy,60,2013-02-09 19:53:00
11:53 AM,-27.0,-33.0,73,30.01,10.0,ENE,8.1,-,N/A,,Mostly Cloudy,70,2013-02-09 20:53:00
12:53 PM,-26.0,-32.1,73,29.99,10.0,ENE,8.1,-,N/A,,Mostly Cloudy,60,2013-02-09 21:53:00
1:53 PM,-26.0,-32.1,73,29.98,10.0,ENE,9.2,-,N/A,,Mostly Cloudy,70,2013-02-09 22:53:00
2:53 PM,-26.0,-32.1,73,29.95,10.0,ENE,10.4,-,N/A,,Mostly Cloudy,60,2013-02-09 23:53:00
3:53 PM,-25.1,-31.0,74,29.93,7.0,ENE,12.7,-,N/A,,Mostly Cloudy,60,2013-02-10 00:53:00
4:53 PM,-27.0,-33.0,73,29.92,7.0,ENE,10.4,-,N/A,,Scattered Clouds,60,2013-02-10 01:53:00
5:53 PM,-26.0,-32.1,73,29.90,10.0,ENE,12.7,-,N/A,,Scattered Clouds,60,2013-02-10 02:53:00
6:53 PM,-24.0,-29.9,74,29.88,7.0,ENE,18.4,-,N/A,,Scattered Clouds,70,2013-02-10 03:53:00
7:53 PM,-23.1,-29.9,70,29.84,10.0,ENE,18.4,-,N/A,,Scattered Clouds,60,2013-02-10 04:53:00
8:53 PM,-23.1,-29.0,74,29.82,10.0,ENE,17.3,-,N/A,,Clear,60,2013-02-10 05:53:00
9:53 PM,-20.9,-27.9,70,29.79,10.0,ENE,17.3,-,N/A,,Clear,60,2013-02-10 06:53:00
10:53 PM,-20.0,-27.0,70,29.77,9.0,NE,19.6,-,N/A,,Clear,50,2013-02-10 07:53:00
11:53 PM,-20.0,-26.0,74,29.76,10.0,NE,17.3,-,N/A,,Clear,50,2013-02-10 08:53:00